Flag Weather past 2 weeks in Bucaramanga, Colombia

Now
75 °F

Scattered clouds.


Feels Like: 77 °F
Forecast: N/A
Wind: 7 mph from Northwest

Location: Bucaramanga / Palonegro

Current Time: Nov 27, 2014 at 4:09:26 PM

Latest Report: Nov 27, 2014 at 3:00 PM


Visibility: N/A

Pressure: 29.92 "Hg

Humidity: 74%

Dew point: 66 °F

Location of BucaramangaLocation

Historic Weather in Bucaramanga — Graph

°F

Bucaramanga temperature yesterday

Maximum temperature yesterday: 75 °F (at 12:00 PM)
Minimum temperature yesterday: 66 °F (at 6:00 AM)
Average temperature yesterday: 71 °F

Past Weeks' High & Low Weather Summary

 TemperatureHumidityPressure
High79 °F (Nov 23, 12:00 PM)100% (Nov 12, 6:00 PM)30.11 "Hg (Nov 12, 6:00 PM)
Low64 °F (Nov 13, 6:00 AM)65% (Nov 13, 11:00 AM)29.84 "Hg (Nov 23, 4:00 PM)
Average71 °F87%29.98 "Hg
* Reported Nov 12 3:00 PM — Nov 27 3:00 PM, Bucaramanga, Weather by CustomWeather, © 2014

Note: Actual official high and low records may vary slightly from our data, if they occured in-between our weather recording intervals... More about our weather records

Advertising

Bucaramanga weather history for previous 24 hours

 ConditionsComfort  
Time TempWeatherWind HumidityBarometerVisibility
3:00 PM
Nov 27
75 °FScattered clouds.7 mph74%29.92 "HgN/A
2:00 PM75 °FScattered clouds.3 mph74%29.93 "HgN/A
1:00 PM75 °FScattered clouds.3 mph74%29.96 "HgN/A
12:00 PM75 °FScattered clouds.2 mph74%29.99 "HgN/A
11:00 AM73 °FScattered clouds.5 mph74%30.03 "HgN/A
10:00 AM72 °FFog.7 mph88%30.05 "Hg5 mi
9:00 AM68 °FScattered clouds.2 mph100%30.05 "Hg2 mi
8:00 AM68 °FBroken clouds.No wind100%30.03 "Hg2 mi
7:00 AM66 °FSnow. Scattered clouds.No wind100%30.01 "HgN/A
6:00 AM66 °FScattered clouds.No wind100%29.99 "HgN/A
12:00 AM66 °FPassing clouds.2 mph100%30.01 "HgN/A
11:00 PM
Nov 26
66 °FPartly cloudy.2 mph100%30.02 "Hg3 mi
10:00 PM66 °FPassing clouds.7 mph100%30.04 "Hg1 mi
9:00 PM68 °FPassing clouds.3 mph100%30.01 "Hg2 mi
8:00 PM68 °FPartly cloudy.5 mph94%29.97 "HgN/A
7:00 PM70 °FPartly cloudy.5 mph94%29.95 "HgN/A
6:00 PM70 °FPassing clouds.5 mph94%29.92 "HgN/A
5:00 PM73 °FScattered clouds.6 mph83%29.91 "HgN/A
4:00 PM73 °FScattered showers. Scattered clouds.9 mph83%29.91 "HgN/A
Weather by CustomWeather, © 2014

See weather overviewHow to use our weather pages